EHI
2 2 2 2 1 0 0 0 0 0 0 0 0 0 0 0 0 0 0 0 0 0 0 0 0 0 0 0 0 0 0 0 0 0 0 0 0 0 0 0 0 0 0
1 1 1 1 0 0 0 0 0 0 0 0 0 0 0 0 0 0 0 0 0 0 0 0 0 0 0 0 0 0 0 0 0 0 0 0 0 0 0 0 0 0 0
0 0 0 0 0 0 0 0 0 0 0 0 0 0 0 0 0 0 0 0 0 0 0 0 0 0 0 0 0 0 0 0 0 0 0 0 0 0 0 0 0 0 0
0 0 0 0 0 0 0 0 0 0 0 0 0 0 0 0 0 0 0 0 0 0 0 0 0 0 0 0 0 0 0 0 0 0 0 0 0 0 0 0 0 0 0
0 0 0 0 0 0 0 0 0 0 0 0 0 0 0 0 0 0 0 0 0 0 0 0 0 0 0 0 0 0 0 0 0 0 0 0 0 0 0 0 0 0 0
0 0 0 0 0 0 0 0 0 0 0 0 0 0 0 0 0 0 0 0 0 0 0 0 0 0 0 0 0 0 0 0 0 0 0 0 0 0 0 0 0 0 0
0 0 0 0 0 0 0 0 0 0 0 0 0 0 0 0 0 0 0 0 0 0 0 0 0 0 0 0 0 0 0 0 0 0 0 0 0 0 0 0 0 0 0
0 0 0 0 0 0 0 0 0 0 0 0 0 0 0 0 0 0 0 0 0 0 0 0 0 0 0 0 0 0 0 0 0 0 0 0 0 0 0 0 0 0 0
0 0 0 0 0 0 0 0 0 0 0 0 0 0 0 0 0 0 0 0 0 0 0 0 0 0 0 0 0 0 0 0 0 0 0 0 0 0 0 0 0 0 0
0 0 0 0 0 0 0 0 0 0 0 0 0 0 0 0 0 0 0 0 0 0 0 0 0 0 0 0 0 0 0 0 0 0 0 0 0 0 0 0 0 0 0
0 0 0 0 0 0 0 0 0 0 0 0 0 0 0 0 0 0 0 0 0 0 0 0 0 0 0 0 0 0 0 0 0 0 0 0 0 0 0 0 0 0 0
0 0 0 0 0 0 0 0 0 0 0 0 0 0 0 0 0 0 0 0 0 0 0 0 0 0 0 0 0 0 0 0 0 0 0 0 0 0 0 0 0 0 0
0 0 0 0 0 0 0 0 0 0 0 0 0 0 0 0 0 0 0 0 0 0 0 0 0 0 0 0 0 0 0 0 0 0 0 0 0 0 0 0 0 0 0
0 0 0 0 0 0 0 0 0 0 0 0 0 0 0 0 0 0 0 0 0 0 0 0 0 0 0 0 0 0 0 0 0 0 0 0 0 0 0 0 0 0 0
0 0 0 0 0 0 0 0 0 0 0 0 0 0 0 0 0 0 0 0 0 0 0 0 0 0 0 0 0 0 0 0 0 0 0 0 0 0 0 0 0 0 0
0 0 0 0 0 0 0 0 0 0 0 0 0 0 0 0 0 0 0 0 0 0 0 0 0 0 0 0 0 0 0 0 0 0 0 0 0 0 0 0 0 0 0
0 0 0 0 0 0 0 0 0 0 0 0 0 0 0 0 0 0 0 0 0 0 0 0 0 0 0 0 0 0 0 0 0 0 0 0 0 0 0 0 0 0 0
0 0 0 0 0 0 0 0 0 0 0 0 0 0 0 0 0 0 0 0 0 0 0 0 0 0 0 0 0 0 0 0 0 0 0 0 0 0 0 0 0 0 0
0 0 0 0 0 0 0 0 0 0 0 0 0 0 0 0 0 0 0 0 0 0 0 0 0 0 0 0 0 0 0 0 0 0 0 0 0 0 0 0 0 0 0
0 0 0 0 0 0 0 0 0 0 0 0 0 0 0 0 0 0 0 0 0 0 0 0 0 0 0 0 0 0 0 0 0 0 0 0 0 0 0 0 0 0 0
0 0 0 0 0 0 0 0 0 0 0 0 0 0 0 0 0 0 0 0 0 0 0 0 0 0 0 0 0 0 0 0 0 0 0 0 0 0 0 0 0 0 0
0 0 0 0 0 0 0 0 0 0 0 0 0 0 0 0 0 0 0 0 0 0 0 0 0 0 0 0 0 0 0 0 0 0 0 0 0 0 0 0 0 0 0
0 0 0 0 0 0 0 0 0 0 0 0 0 0 0 0 0 0 0 0 0 0 0 0 0 0 0 0 0 0 0 0 0 0 0 0 0 0 0 0 0 0 0
0 0 0 0 0 0 0 0 0 0 0 0 0 0 0 0 0 0 0 0 0 0 0 0 0 0 0 0 0 0 0 0 0 0 0 0 0 0 0 0 0 0 0
0 0 0 0 0 0 0 0 0 0 0 0 0 0 0 0 0 0 0 0 0 0 0 0 0 0 0 0 0 0 0 0 0 0 0 0 0 0 0 0 0 0 0
0 0 0 0 0 0 0 0 0 0 0 0 0 0 0 0 0 0 0 0 0 0 0 0 0 0 0 0 0 0 0 0 0 0 0 0 0 0 0 0 0 0 0
Wind_Speed
13 13 14 13 13 13 13 12 11 11 11 11 11 10 10 10 10 9 10 9 10 9 8 9 9 8 6 6 5 5 5 4 3 3 3 3 3 4 3 4 3 3 1
12 13 14 13 14 13 13 12 12 11 11 11 10 10 11 10 9 9 9 9 9 9 9 9 8 7 7 7 5 6 5 4 3 3 2 2 2 2 3 4 3 3 3
12 13 13 13 13 13 12 11 11 11 11 11 10 10 10 9 9 9 9 9 9 9 8 8 8 8 7 6 6 6 4 4 3 2 2 2 2 3 4 3 3 3 4
13 13 13 13 13 12 12 12 11 11 11 10 10 10 9 9 9 8 8 8 8 8 8 8 8 8 8 6 5 5 5 3 2 2 2 2 2 2 3 4 3 3 3
13 13 13 12 12 11 11 11 10 10 10 10 10 10 9 8 8 7 7 7 7 7 7 7 8 7 7 6 6 6 6 4 3 3 2 2 3 4 4 4 5 4 2
13 13 12 11 11 11 10 10 10 10 9 9 9 9 9 9 9 10 7 6 6 6 6 5 5 5 3 1 1 4 6 6 6 5 4 5 5 5 5 5 5 5 3
12 11 10 10 10 9 10 10 9 9 9 9 8 9 10 10 9 9 9 4 6 5 5 5 5 6 4 5 0 5 4 4 5 6 6 6 6 6 7 7 6 6 6
11 10 10 9 9 9 9 9 8 8 8 7 8 8 9 9 8 7 9 2 5 5 5 5 5 5 7 7 6 4 3 1 2 5 6 7 7 7 7 7 7 7 5
10 9 9 8 9 8 8 8 7 7 7 7 7 8 8 8 8 8 11 2 4 5 5 6 6 6 6 8 6 4 4 3 3 6 7 8 8 8 8 7 6 5 4
9 8 8 7 8 8 7 7 7 6 6 7 7 7 7 7 7 8 12 2 4 4 4 5 7 6 7 8 6 6 6 6 6 3 4 6 6 5 8 6 6 6 5
8 8 7 7 7 7 6 6 6 6 6 6 7 6 6 6 6 7 10 5 4 4 4 4 7 6 6 6 7 6 6 8 7 5 3 2 2 1 1 2 3 5 5
7 7 7 6 5 6 6 6 5 5 6 6 5 5 5 5 6 5 5 5 7 4 5 5 6 5 4 4 4 6 8 10 5 4 4 4 4 4 4 4 4 3 3
7 7 7 6 5 5 5 5 5 3 4 4 4 5 5 5 5 2 1 1 4 3 5 4 3 4 5 1 1 5 7 4 5 4 4 4 4 4 3 2 1 1 2
6 6 6 5 6 5 3 4 4 4 4 4 4 5 5 5 5 4 2 2 3 2 1 3 6 5 3 2 2 2 4 5 5 5 5 4 4 3 3 3 3 2 1
6 5 5 5 6 5 6 6 5 8 7 6 5 4 4 6 7 7 7 6 6 6 6 2 3 3 4 4 4 4 4 4 4 5 5 5 4 4 4 3 3 3 3
5 4 4 5 4 5 6 7 8 7 6 6 7 7 6 7 4 4 3 4 5 8 6 3 4 5 5 5 5 5 5 5 5 5 5 5 5 5 4 4 4 4 4
4 4 3 4 4 4 4 5 7 6 4 4 4 4 5 5 3 2 2 3 4 7 3 4 4 5 5 5 5 5 5 5 5 5 5 5 5 5 5 4 4 5 5
4 4 2 3 3 3 4 4 4 5 6 6 6 4 3 3 2 2 5 6 2 1 4 4 5 5 5 5 6 6 6 5 5 5 5 6 6 6 6 5 5 6 6
3 3 3 3 3 4 3 3 3 4 4 4 6 7 5 5 5 2 5 3 4 4 4 4 5 5 5 5 5 5 5 5 6 6 5 6 6 6 6 6 5 3 5
4 4 1 3 4 4 3 3 3 3 3 3 3 3 2 2 1 2 1 3 4 4 4 4 4 5 5 5 5 5 5 4 5 5 5 6 6 6 6 6 6 6 5
5 7 5 4 3 3 3 3 3 2 2 2 3 5 5 3 2 2 3 3 4 4 5 5 5 5 5 5 6 6 7 5 5 6 6 6 6 6 6 6 6 6 6
4 5 5 3 4 3 3 3 3 2 2 2 3 5 3 3 2 2 2 3 3 3 4 5 5 5 5 6 6 6 6 6 6 7 7 7 6 6 6 6 6 6 6
4 4 4 4 4 5 4 3 3 2 2 2 1 1 1 1 1 2 2 2 2 3 3 4 5 6 6 5 5 5 6 7 7 8 8 8 7 6 6 6 7 7 6
4 4 4 4 4 4 4 3 3 3 2 2 1 0 1 1 1 2 2 2 2 2 3 4 4 6 7 6 5 5 7 8 10 8 10 9 8 7 6 6 6 7 6
4 4 4 4 4 4 4 3 3 3 2 2 1 1 1 1 1 1 1 1 1 2 3 3 4 5 7 8 8 8 9 8 7 8 10 8 7 6 6 6 5 6 6
4 4 4 4 4 4 3 3 3 3 3 2 2 1 1 1 1 1 1 1 1 2 2 3 4 5 7 6 8 8 7 8 8 8 9 8 6 6 8 6 6 5 6
Wind_Direction
79 83 85 87 87 87 87 86 86 85 84 85 86 86 85 83 81 80 82 81 79 77 74 70 63 47 41 39 38 36 33 27 47 61 53 52 14 356 355 334 325 301 161
83 86 86 87 88 86 85 85 84 83 84 85 84 84 83 82 79 80 81 79 78 75 70 66 61 59 50 39 31 38 42 34 34 52 38 43 20 349 337 312 319 323 313
88 88 87 86 87 86 86 85 85 86 85 84 84 83 82 82 81 80 81 80 77 73 67 63 57 50 44 43 32 34 32 38 27 19 38 25 358 4 324 314 324 316 303
91 90 88 87 87 87 88 87 87 87 87 87 84 82 80 78 78 82 83 81 79 74 67 61 52 45 38 30 36 33 23 12 18 357 19 18 3 355 317 332 335 329 320
94 92 91 91 90 90 88 88 89 89 89 87 85 81 77 71 58 61 82 82 78 75 69 62 60 54 38 15 13 12 4 354 356 354 357 3 12 353 351 342 340 325 327
99 99 100 100 97 93 92 92 89 86 85 84 81 79 73 64 37 24 23 77 72 68 63 59 82 77 68 138 18 345 343 344 351 340 356 5 1 355 350 332 338 333 338
103 103 102 101 99 98 98 95 92 90 88 85 83 80 77 63 37 23 3 36 68 59 51 40 41 52 7 17 238 220 223 232 275 316 334 345 344 354 335 332 344 334 334
106 104 104 103 99 98 96 94 95 95 93 89 84 82 82 66 37 17 340 42 70 66 54 42 36 36 29 350 340 359 7 33 278 288 324 322 333 334 321 311 307 300 293
106 105 103 102 100 97 94 95 97 99 98 95 87 83 83 75 38 9 337 78 79 76 64 50 23 34 32 334 325 2 11 24 194 236 271 284 295 289 289 298 313 318 334
107 105 103 99 94 91 91 94 96 100 101 97 89 80 74 69 47 12 340 24 75 84 88 97 73 25 4 339 342 4 9 5 349 331 254 241 247 237 232 270 320 333 344
110 107 103 99 95 92 93 96 101 100 97 95 96 90 79 65 77 35 358 357 32 49 60 63 64 31 6 345 328 359 350 315 309 319 333 346 339 333 311 320 341 334 346
114 108 103 97 93 98 98 97 98 105 116 113 108 103 99 91 59 52 14 5 339 23 41 45 57 17 352 344 352 352 310 293 307 345 353 5 6 7 7 359 1 345 333
118 111 107 102 92 92 98 104 109 112 107 107 107 100 94 96 110 151 201 296 318 3 51 43 355 312 284 222 44 304 301 326 351 354 2 6 3 358 339 342 342 271 263
119 116 115 114 109 95 83 83 86 90 96 99 92 90 94 91 63 47 69 134 189 186 105 164 214 244 278 349 314 325 352 10 348 350 356 352 350 352 0 5 352 337 315
128 125 122 111 102 99 78 52 51 60 37 27 55 65 62 69 43 6 348 16 10 15 332 356 22 22 13 20 16 17 3 6 1 2 354 346 356 3 6 15 358 343 353
140 136 125 117 119 118 119 111 60 63 76 56 32 16 65 58 29 20 19 2 339 322 314 23 25 18 15 13 8 10 17 15 1 350 353 356 357 359 1 2 1 359 358
129 122 120 118 126 125 120 127 131 127 117 97 75 51 42 44 41 22 328 303 296 300 331 34 25 17 11 7 5 6 8 12 353 347 356 357 355 354 357 1 10 2 358
141 132 147 130 126 122 123 127 128 134 140 137 131 117 111 101 67 337 296 276 240 357 29 30 21 13 9 3 1 360 355 357 357 352 358 356 354 350 353 356 11 5 351
158 145 140 129 133 126 130 129 121 117 117 119 131 140 163 172 183 246 288 336 30 31 28 25 16 8 3 358 356 353 346 349 355 343 355 353 349 345 350 350 357 358 326
129 93 143 152 138 136 140 138 131 128 123 116 108 93 128 179 158 112 42 23 21 30 21 15 13 4 357 351 349 349 345 349 349 345 354 349 345 342 344 343 346 345 350
147 140 174 185 148 140 144 144 137 132 127 122 100 72 357 340 48 39 32 33 27 22 19 360 356 1 359 352 356 351 344 349 354 350 347 345 341 340 335 338 344 346 350
150 156 165 149 142 142 145 150 147 138 134 132 130 139 200 276 28 30 36 36 34 25 21 359 349 2 8 0 352 339 342 351 354 351 341 336 334 337 338 342 349 347 351
159 155 153 150 147 142 181 165 159 160 146 138 130 122 149 28 28 39 37 32 31 26 17 1 351 8 12 0 345 334 346 355 346 335 326 325 329 333 337 344 343 345 1
154 158 153 151 157 166 168 164 165 158 153 150 148 115 82 69 37 35 14 28 31 28 18 8 9 12 5 358 343 354 19 357 332 316 319 317 318 329 337 341 343 355 355
160 159 158 158 163 165 166 166 163 160 162 162 162 154 112 92 78 61 47 47 27 28 21 14 10 12 6 5 8 12 8 338 318 315 307 302 317 334 335 343 352 360 4
155 157 165 163 165 167 170 174 172 172 172 168 163 143 117 102 73 52 53 41 14 46 25 27 25 17 9 12 23 8 345 330 322 307 298 301 327 360 347 344 355 5 18